Location: Buckeye Ditch
(40.9104°N, 122.9517°W)
Time: 13:14:44
(UTC+00:00)

NOSS 2-2 (E) - Visible Passes

Search period start: 12 July 2024 00:00
Search period end: 22 July 2024 00:00
Orbit: 402 x 1750 km, 63.3° (Epoch: 12 July)

Date Brightness Start Highest point End Pass type
(mag) Time Alt. Az. Time Alt. Az. Time Alt. Az.
12 Jul 2.7 05:35:42 30° SSW 05:37:08 60° ESE 05:40:13 10° NE visible
13 Jul 4.2 04:41:15 10° SSE 04:43:56 20° ESE 04:46:23 10° ENE visible
13 Jul 5.5 06:31:16 10° W 06:33:43 19° NW 06:36:05 10° N visible
13 Jul 7.0 12:08:22 10° NNE 12:10:33 13° NE 12:13:02 10° ENE visible
14 Jul 3.6 05:36:58 10° SW 05:40:18 51° NW 05:43:22 10° NNE visible
15 Jul 3.0 04:43:38 10° SSW 04:47:02 48° ESE 04:50:04 10° NE visible
15 Jul 6.6 12:10:30 10° N 12:14:00 22° NE 12:18:24 10° E visible
16 Jul 5.4 05:40:52 10° WSW 05:43:33 22° NW 05:46:06 10° N visible
16 Jul 7.2 11:18:38 10° NNE 11:20:19 12° NE 11:22:10 10° ENE visible
17 Jul 3.3 04:46:45 10° SW 04:50:09 63° NW 04:53:15 10° NNE visible
17 Jul 5.8 12:13:06 10° NNW 12:17:16 37° NE 12:22:56 10° ESE visible
18 Jul 6.5 05:45:43 10° WNW 05:46:55 12° NW 05:48:06 10° NNW visible
18 Jul 6.8 11:20:29 10° N 11:23:46 20° NE 11:27:48 10° E visible
19 Jul 5.2 04:50:26 10° WSW 04:53:18 26° NW 04:56:01 10° NNE visible
19 Jul 7.4 10:29:11 10° NNE 10:30:01 10° NE 10:30:52 10° NE visible
19 Jul 4.6 12:15:55 10° NNW 12:20:26 66° NE 12:26:52 10° SE visible
20 Jul 5.8 11:22:58 10° NNW 11:27:00 33° NE 11:32:25 10° ESE visible
21 Jul 6.3 04:54:54 10° WNW 04:56:35 13° NW 04:58:15 10° N visible
21 Jul 6.7 10:30:26 10° N 10:33:26 18° NE 10:37:05 10° E visible
21 Jul 4.1 12:18:54 10° NW 12:23:34 73° WSW 12:30:15 10° SSE visible
